Weather History for Iliamna, AK

Change the Weather History Date:

Saturday, October 27, 2012

  Actual Average Record
Temperature  
Mean Temperature 27 °F -  
Max Temperature 35 °F 33 °F 50 °F (2013)
Min Temperature 19 °F 19 °F -2 °F (1976)
Degree Days  
Heating Degree Days 38    
Moisture  
Dew Point 17 °F    
Average Humidity 68    
Maximum Humidity 81    
Minimum Humidity 43    
Precipitation  
Precipitation 0.00 in - - ()
Sea Level Pressure  
Sea Level Pressure 30.12 in    
Wind  
Wind Speed 8 mph (North)    
Max Wind Speed 12 mph    
Max Gust Speed -    
Visibility 10 miles    
Events      
Averages and records for this station are not official NWS values.
T = Trace of Precipitation, MM = Missing Value Source: NWS Daily Summary

Daily Weather History Graph

Daily Weather History Graph

Search for Another Location

Airport:

Trip Planner

Search our weather history database for the weather conditions in past years. The results will help you decide how hot, cold, wet, or windy it might be!

Date:

Astronomy

Oct. 27, 2012 Rise Set
Actual Time 9:30 AM AKDT 6:35 PM AKDT
Civil Twilight 8:46 AM AKDT 7:19 PM AKDT
Nautical Twilight 7:57 AM AKDT 8:08 PM AKDT
Astronomical Twilight 7:09 AM AKDT 8:55 PM AKDT
Moon 5:40 PM AKDT (10/27) 7:17 AM AKDT (10/27)
Length of Visible Light 10h 33m
Length of Day
9h 05m
Waxing Gibbous, 96% of the Moon is Illuminated
Oct 27
Waxing Gibbous
Oct 29
Full
Nov 6
Last Quarter
Nov 13
New
Nov 20
First Quarter

Hourly Weather History & Observations

Time (AKDT) Temp. Windchill Dew Point Humidity Pressure Visibility Wind Dir Wind Speed Gust Speed Precip Events Conditions
12:53 AM 21.9 °F 13.4 °F 14.0 °F 72% 30.21 in 10.0 mi North 6.9 mph - N/A   Clear
1:53 AM 21.0 °F 13.4 °F 14.0 °F 74% 30.21 in 10.0 mi North 5.8 mph - N/A   Clear
2:53 AM 21.9 °F 11.7 °F 15.1 °F 75% 30.20 in 10.0 mi North 9.2 mph - N/A   Clear
3:53 AM 21.0 °F 10.6 °F 14.0 °F 74% 30.19 in 10.0 mi North 9.2 mph - N/A   Clear
4:53 AM 21.0 °F 11.4 °F 15.1 °F 78% 30.18 in 10.0 mi North 8.1 mph - N/A   Clear
5:53 AM 19.9 °F 10.1 °F 15.1 °F 81% 30.17 in 10.0 mi North 8.1 mph - N/A   Clear
6:53 AM 19.9 °F 8.6 °F 15.1 °F 81% 30.16 in 10.0 mi North 10.4 mph - N/A   Clear
7:53 AM 21.0 °F 9.9 °F 15.1 °F 78% 30.14 in 10.0 mi North 10.4 mph - N/A   Clear
8:53 AM 21.0 °F 9.3 °F 16.0 °F 81% 30.13 in 10.0 mi North 11.5 mph - N/A   Clear
9:53 AM 19.9 °F 8.6 °F 15.1 °F 81% 30.13 in 10.0 mi NNE 10.4 mph - N/A   Clear
10:53 AM 23.0 °F 13.1 °F 17.1 °F 78% 30.12 in 10.0 mi North 9.2 mph - N/A   Clear
11:53 AM 26.1 °F 15.6 °F 17.1 °F 69% 30.12 in 10.0 mi North 11.5 mph - N/A   Clear
12:53 PM 28.0 °F 18.1 °F 19.0 °F 69% 30.12 in 10.0 mi NNE 11.5 mph - N/A   Clear
1:53 PM 32.0 °F 23.6 °F 19.9 °F 61% 30.10 in 10.0 mi North 10.4 mph - N/A   Clear
2:53 PM 34.0 °F 28.0 °F 19.9 °F 56% 30.09 in 10.0 mi North 6.9 mph - N/A   Clear
3:53 PM 34.0 °F 27.2 °F 19.9 °F 56% 30.08 in 10.0 mi North 8.1 mph - N/A   Clear
4:53 PM 34.0 °F 28.8 °F 19.0 °F 54% 30.07 in 10.0 mi North 5.8 mph - N/A   Clear
5:53 PM 32.0 °F 26.4 °F 19.0 °F 59% 30.06 in 10.0 mi North 5.8 mph - N/A   Clear
6:53 PM 28.0 °F 20.8 °F 18.0 °F 66% 30.06 in 10.0 mi North 6.9 mph - N/A   Clear
7:53 PM 27.0 °F 18.7 °F 19.0 °F 72% 30.06 in 10.0 mi North 8.1 mph - N/A   Clear
8:53 PM 27.0 °F 18.0 °F 17.1 °F 66% 30.06 in 10.0 mi North 9.2 mph - N/A   Clear
9:53 PM 26.1 °F 16.8 °F 16.0 °F 66% 30.06 in 10.0 mi North 9.2 mph - N/A   Clear
10:53 PM 26.1 °F 16.8 °F 16.0 °F 66% 30.06 in 10.0 mi North 9.2 mph - N/A   Clear
11:53 PM 25.0 °F 16.3 °F 16.0 °F 69% 30.06 in 10.0 mi North 8.1 mph - N/A   Clear